| time (UTC) | temp F | wind direction | speed MPH | gust MPH | rain 1hr in | rain 24hr in | rain mn in | humidity % | barometer mb |
| 20260510085045 | 51 | 150 | 5.0 | 12.0 | 0.00 | 0.02 | 0.02 | 91 | 1006.2 |
| 20260510084557 | 51 | 147 | 6.0 | 12.0 | 0.00 | 0.02 | 0.02 | 91 | 1006.4 |
| 20260510084044 | 51 | 158 | 6.0 | 12.0 | 0.00 | 0.02 | 0.02 | 91 | 1006.2 |
| 20260510083545 | 51 | 159 | 6.0 | 13.0 | 0.00 | 0.02 | 0.02 | 91 | 1005.7 |
| 20260510083106 | 51 | 161 | 6.0 | 13.0 | 0.00 | 0.02 | 0.02 | 91 | 1005.9 |
| 20260510082544 | 51 | 133 | 6.0 | 12.0 | 0.01 | 0.02 | 0.02 | 91 | 1006.0 |
| 20260510082045 | 51 | 138 | 5.0 | 14.0 | 0.01 | 0.02 | 0.02 | 91 | 1006.1 |
| 20260510081552 | 51 | 156 | 5.0 | 14.0 | 0.01 | 0.02 | 0.02 | 91 | 1006.3 |
| 20260510081044 | 51 | 160 | 6.0 | 14.0 | 0.02 | 0.02 | 0.02 | 91 | 1006.3 |
| 20260510080545 | 51 | 148 | 7.0 | 14.0 | 0.02 | 0.02 | 0.02 | 91 | 1006.0 |
| 20260510075544 | 52 | 155 | 9.0 | 16.0 | 0.02 | 0.02 | 0.02 | 91 | 1006.2 |
| 20260510075044 | 52 | 153 | 6.0 | 14.0 | 0.02 | 0.02 | 0.02 | 91 | 1006.4 |
| 20260510074553 | 52 | 153 | 7.0 | 14.0 | 0.02 | 0.02 | 0.02 | 90 | 1006.4 |
| 20260510074047 | 52 | 144 | 8.0 | 17.0 | 0.02 | 0.02 | 0.02 | 90 | 1006.4 |
| 20260510073545 | 52 | 155 | 8.0 | 17.0 | 0.02 | 0.02 | 0.02 | 90 | 1006.5 |
| 20260510073055 | 52 | 153 | 7.0 | 15.0 | 0.02 | 0.02 | 0.02 | 89 | 1006.5 |
| 20260510072544 | 52 | 164 | 7.0 | 14.0 | 0.01 | 0.01 | 0.01 | 89 | 1006.7 |
| 20260510072045 | 52 | 163 | 6.0 | 16.0 | 0.01 | 0.01 | 0.01 | 88 | 1006.8 |
| 20260510071552 | 52 | 162 | 7.0 | 17.0 | 0.01 | 0.01 | 0.01 | 87 | 1006.7 |
| 20260510071044 | 52 | 159 | 7.0 | 17.0 | 0.00 | 0.00 | 0.00 | 86 | 1006.5 |
| 20260510070546 | 52 | 144 | 8.0 | 17.0 | 0.00 | 0.00 | 0.00 | 85 | 1006.8 |
| 20260510065545 | 52 | 164 | 10.0 | 17.0 | 0.00 | 0.00 | 0.00 | 84 | 1006.7 |
| 20260510065045 | 52 | 144 | 5.0 | 15.0 | 0.00 | 0.00 | 0.00 | 83 | 1006.8 |
| 20260510064610 | 53 | 156 | 7.0 | 16.0 | 0.00 | 0.00 | 0.00 | 81 | 1007.0 |
| 20260510064045 | 53 | 175 | 7.0 | 16.0 | 0.00 | 0.00 | 0.00 | 80 | 1007.0 |
| 20260510063545 | 53 | 175 | 6.0 | 15.0 | 0.00 | 0.00 | 0.00 | 80 | 1006.8 |
| 20260510063052 | 53 | 173 | 7.0 | 15.0 | 0.00 | 0.00 | 0.00 | 79 | 1006.9 |
| 20260510062547 | 53 | 193 | 8.0 | 15.0 | 0.00 | 0.00 | 0.00 | 78 | 1006.7 |
| 20260510062045 | 53 | 182 | 8.0 | 14.0 | 0.00 | 0.00 | 0.00 | 79 | 1006.7 |
| 20260510061554 | 53 | 181 | 6.0 | 13.0 | 0.00 | 0.00 | 0.00 | 78 | 1006.6 |
| 20260510061048 | 53 | 175 | 7.0 | 13.0 | 0.00 | 0.00 | 0.00 | 78 | 1006.6 |
| 20260510060548 | 53 | 160 | 6.0 | 15.0 | 0.00 | 0.00 | 0.00 | 79 | 1006.5 |
| 20260510060056 | 53 | 163 | 7.0 | 15.0 | 0.00 | 0.00 | 0.00 | 78 | 1006.4 |
| 20260510055544 | 53 | 168 | 6.0 | 14.0 | 0.00 | 0.00 | 0.00 | 79 | 1006.2 |
| 20260510055044 | 53 | 163 | 8.0 | 15.0 | 0.00 | 0.00 | 0.00 | 79 | 1006.3 |
| 20260510054600 | 53 | 164 | 7.0 | 15.0 | 0.00 | 0.00 | 0.00 | 79 | 1006.4 |
| 20260510054046 | 53 | 175 | 8.0 | 18.0 | 0.00 | 0.00 | 0.00 | 79 | 1006.5 |
| 20260510053545 | 53 | 144 | 7.0 | 18.0 | 0.00 | 0.00 | 0.00 | 79 | 1006.4 |
| 20260510053057 | 53 | 149 | 9.0 | 17.0 | 0.00 | 0.00 | 0.00 | 79 | 1006.5 |
| 20260510052545 | 53 | 171 | 9.0 | 16.0 | 0.00 | 0.00 | 0.00 | 79 | 1006.6 |
| 20260510052047 | 53 | 172 | 5.0 | 16.0 | 0.00 | 0.00 | 0.00 | 79 | 1006.8 |
| 20260510051547 | 53 | 172 | 9.0 | 17.0 | 0.00 | 0.00 | 0.00 | 79 | 1006.7 |
| 20260510051045 | 53 | 171 | 7.0 | 17.0 | 0.00 | 0.00 | 0.00 | 79 | 1006.7 |
| 20260510050547 | 53 | 187 | 6.0 | 16.0 | 0.00 | 0.00 | 0.00 | 79 | 1006.8 |
| 20260510050058 | 53 | 189 | 6.0 | 16.0 | 0.00 | 0.00 | 0.00 | 79 | 1006.7 |
| 20260510045545 | 53 | 162 | 7.0 | 16.0 | 0.00 | 0.00 | 0.00 | 79 | 1006.8 |
| 20260510045045 | 53 | 134 | 7.0 | 12.0 | 0.00 | 0.00 | 0.00 | 78 | 1006.8 |
| 20260510044602 | 53 | 173 | 6.0 | 12.0 | 0.00 | 0.00 | 0.00 | 78 | 1006.8 |
| 20260510044044 | 53 | 169 | 6.0 | 12.0 | 0.00 | 0.00 | 0.00 | 78 | 1006.7 |
| 20260510043546 | 52 | 161 | 5.0 | 12.0 | 0.00 | 0.00 | 0.00 | 78 | 1006.8 |
| 20260510043055 | 52 | 159 | 4.0 | 12.0 | 0.00 | 0.00 | 0.00 | 79 | 1006.6 |
| 20260510042548 | 52 | 158 | 3.0 | 10.0 | 0.00 | 0.00 | 0.00 | 78 | 1006.8 |
| 20260510042043 | 52 | 166 | 5.0 | 9.0 | 0.00 | 0.00 | 0.00 | 78 | 1006.7 |
| 20260510041610 | 52 | 167 | 5.0 | 10.0 | 0.00 | 0.00 | 0.00 | 78 | 1006.7 |
| 20260510041046 | 52 | 167 | 4.0 | 13.0 | 0.00 | 0.00 | 0.00 | 78 | 1006.7 |
| 20260510040543 | 52 | 172 | 6.0 | 16.0 | 0.00 | 0.00 | 0.00 | 78 | 1006.5 |
| 20260510040051 | 52 | 169 | 7.0 | 16.0 | 0.00 | 0.00 | 0.00 | 77 | 1006.3 |
| 20260510035543 | 52 | 161 | 8.0 | 16.0 | 0.00 | 0.00 | 0.00 | 77 | 1006.2 |
| 20260510035044 | 52 | 153 | 7.0 | 16.0 | 0.00 | 0.00 | 0.00 | 77 | 1006.0 |
| 20260510034557 | 52 | 153 | 7.0 | 16.0 | 0.00 | 0.00 | 0.00 | 78 | 1006.1 |
| 20260510034044 | 52 | 175 | 5.0 | 12.0 | 0.00 | 0.00 | 0.00 | 79 | 1006.3 |
| 20260510033546 | 52 | 175 | 6.0 | 12.0 | 0.00 | 0.00 | 0.00 | 79 | 1006.4 |
| 20260510033049 | 52 | 175 | 5.0 | 11.0 | 0.00 | 0.00 | 0.00 | 79 | 1006.5 |
| 20260510032547 | 52 | 180 | 6.0 | 12.0 | 0.00 | 0.00 | 0.00 | 79 | 1006.5 |
| 20260510032044 | 52 | 184 | 5.0 | 12.0 | 0.00 | 0.00 | 0.00 | 78 | 1006.7 |
| 20260510031551 | 52 | 176 | 6.0 | 11.0 | 0.00 | 0.00 | 0.00 | 78 | 1006.7 |
| 20260510031046 | 52 | 174 | 4.0 | 10.0 | 0.00 | 0.00 | 0.00 | 79 | 1006.6 |
| 20260510030543 | 52 | 180 | 4.0 | 9.0 | 0.00 | 0.00 | 0.00 | 75 | 1006.8 |
| 20260510030057 | 52 | 178 | 4.0 | 11.0 | 0.00 | 0.00 | 0.00 | 78 | 1006.6 |
| 20260510025543 | 52 | 178 | 5.0 | 11.0 | 0.00 | 0.00 | 0.00 | 78 | 1006.5 |
| 20260510025045 | 52 | 177 | 5.0 | 11.0 | 0.00 | 0.00 | 0.00 | 77 | 1006.5 |
| 20260510024552 | 53 | 184 | 5.0 | 10.0 | 0.00 | 0.00 | 0.00 | 77 | 1006.6 |
| 20260510024045 | 53 | 180 | 4.0 | 10.0 | 0.00 | 0.00 | 0.00 | 77 | 1006.7 |
| 20260510023548 | 53 | 178 | 5.0 | 10.0 | 0.00 | 0.00 | 0.00 | 75 | 1006.5 |
| 20260510023048 | 53 | 169 | 5.0 | 10.0 | 0.00 | 0.00 | 0.00 | 77 | 1006.5 |
| 20260510022544 | 52 | 169 | 3.0 | 8.0 | 0.00 | 0.00 | 0.00 | 78 | 1006.6 |
| 20260510022047 | 53 | 168 | 4.0 | 12.0 | 0.00 | 0.00 | 0.00 | 78 | 1006.6 |
| 20260510021548 | 53 | 168 | 5.0 | 12.0 | 0.00 | 0.00 | 0.00 | 78 | 1006.6 |
| 20260510021042 | 52 | 171 | 5.0 | 9.0 | 0.00 | 0.00 | 0.00 | 79 | 1006.5 |
| 20260510020543 | 52 | 174 | 4.0 | 8.0 | 0.00 | 0.00 | 0.00 | 80 | 1006.6 |
| 20260510020047 | 51 | 174 | 4.0 | 8.0 | 0.00 | 0.00 | 0.00 | 82 | 1006.6 |
| 20260510015544 | 51 | 175 | 3.0 | 8.0 | 0.00 | 0.00 | 0.00 | 83 | 1006.6 |
| 20260510015043 | 51 | 177 | 1.0 | 4.0 | 0.00 | 0.00 | 0.00 | 84 | 1006.8 |
| 20260510014547 | 51 | 177 | 1.0 | 4.0 | 0.00 | 0.00 | 0.00 | 84 | 1006.8 |
| 20260510014043 | 51 | 177 | 2.0 | 7.0 | 0.00 | 0.00 | 0.00 | 84 | 1006.9 |
| 20260510013543 | 51 | 177 | 2.0 | 7.0 | 0.00 | 0.00 | 0.00 | 85 | 1006.9 |
| 20260510013054 | 51 | 177 | 3.0 | 7.0 | 0.00 | 0.00 | 0.00 | 86 | 1006.9 |
| 20260510012543 | 50 | 177 | 2.0 | 5.0 | 0.00 | 0.00 | 0.00 | 87 | 1006.8 |
| 20260510012043 | 50 | 177 | 2.0 | 5.0 | 0.00 | 0.00 | 0.00 | 88 | 1006.8 |
| 20260510011548 | 50 | 177 | 1.0 | 5.0 | 0.00 | 0.00 | 0.00 | 88 | 1006.9 |
| 20260510011043 | 50 | 177 | 2.0 | 5.0 | 0.00 | 0.00 | 0.00 | 89 | 1006.9 |
| 20260510010543 | 50 | 177 | 2.0 | 4.0 | 0.00 | 0.00 | 0.00 | 89 | 1006.9 |
| 20260510010050 | 50 | 177 | 1.0 | 4.0 | 0.00 | 0.00 | 0.00 | 89 | 1007.1 |
| 20260510005543 | 50 | 177 | 1.0 | 4.0 | 0.00 | 0.00 | 0.00 | 88 | 1007.1 |
| 20260510005043 | 50 | 0 | 1.0 | 5.0 | 0.00 | 0.00 | 0.00 | 88 | 1007.2 |
| 20260510004553 | 50 | 177 | 2.0 | 5.0 | 0.00 | 0.00 | 0.00 | 88 | 1007.2 |
| 20260510004043 | 50 | 177 | 2.0 | 4.0 | 0.00 | 0.00 | 0.00 | 88 | 1007.3 |
| 20260510003554 | 50 | 177 | 2.0 | 4.0 | 0.00 | 0.00 | 0.00 | 88 | 1007.4 |
| 20260510003100 | 50 | 177 | 2.0 | 4.0 | 0.00 | 0.00 | 0.00 | 88 | 1007.3 |
| 20260510002546 | 50 | 177 | 2.0 | 4.0 | 0.00 | 0.00 | 0.00 | 88 | 1007.2 |
| 20260510002043 | 50 | 177 | 1.0 | 4.0 | 0.00 | 0.00 | 0.00 | 88 | 1007.1 |
| 20260510001551 | 50 | 177 | 2.0 | 4.0 | 0.00 | 0.00 | 0.00 | 87 | 1007.2 |
| 20260510001043 | 50 | 0 | 0.0 | 2.0 | 0.00 | 0.00 | 0.00 | 87 | 1007.4 |
| 20260510000543 | 50 | 0 | 0.0 | 3.0 | 0.00 | 0.00 | 0.00 | 87 | 1007.2 |
| 20260509235543 | 50 | 177 | 0.0 | 3.0 | 0.00 | 0.00 | 0.00 | 87 | 1007.0 |
| 20260509235042 | 50 | 177 | 1.0 | 3.0 | 0.00 | 0.00 | 0.00 | 87 | 1007.0 |
| 20260509234604 | 50 | 177 | 1.0 | 3.0 | 0.00 | 0.00 | 0.00 | 87 | 1006.9 |
| 20260509234044 | 50 | 177 | 1.0 | 6.0 | 0.00 | 0.00 | 0.00 | 87 | 1007.0 |
| 20260509233542 | 50 | 177 | 2.0 | 6.0 | 0.00 | 0.00 | 0.00 | 88 | 1007.0 |
| 20260509233057 | 50 | 177 | 2.0 | 5.0 | 0.00 | 0.00 | 0.00 | 89 | 1006.9 |
| 20260509232543 | 50 | 177 | 2.0 | 5.0 | 0.00 | 0.00 | 0.00 | 89 | 1007.0 |
| 20260509232043 | 50 | 177 | 1.0 | 5.0 | 0.00 | 0.00 | 0.00 | 89 | 1007.0 |
| 20260509231610 | 50 | 177 | 1.0 | 5.0 | 0.00 | 0.00 | 0.00 | 89 | 1006.9 |
| 20260509231048 | 50 | 177 | 3.0 | 7.0 | 0.00 | 0.00 | 0.00 | 89 | 1007.1 |
| 20260509230543 | 50 | 177 | 2.0 | 7.0 | 0.00 | 0.00 | 0.00 | 89 | 1007.0 |
| 20260509230104 | 50 | 177 | 1.0 | 9.0 | 0.00 | 0.00 | 0.00 | 89 | 1006.8 |
| 20260509225544 | 50 | 177 | 1.0 | 9.0 | 0.00 | 0.00 | 0.00 | 89 | 1006.9 |
| 20260509225042 | 50 | 177 | 4.0 | 8.0 | 0.00 | 0.00 | 0.00 | 89 | 1006.8 |
| 20260509224556 | 50 | 177 | 3.0 | 8.0 | 0.00 | 0.00 | 0.00 | 89 | 1006.9 |
| 20260509224048 | 50 | 176 | 2.0 | 7.0 | 0.00 | 0.00 | 0.00 | 89 | 1006.9 |
| 20260509223543 | 50 | 176 | 2.0 | 6.0 | 0.00 | 0.00 | 0.00 | 89 | 1007.0 |
| 20260509223049 | 50 | 175 | 3.0 | 7.0 | 0.00 | 0.00 | 0.00 | 89 | 1007.2 |
| 20260509222545 | 50 | 175 | 2.0 | 7.0 | 0.00 | 0.00 | 0.00 | 89 | 1007.3 |
| 20260509222044 | 50 | 175 | 3.0 | 8.0 | 0.00 | 0.00 | 0.00 | 88 | 1007.3 |
| 20260509221549 | 50 | 175 | 4.0 | 8.0 | 0.00 | 0.00 | 0.00 | 88 | 1007.4 |
| 20260509221048 | 50 | 175 | 4.0 | 9.0 | 0.00 | 0.00 | 0.00 | 88 | 1007.5 |
| 20260509220545 | 50 | 174 | 4.0 | 9.0 | 0.00 | 0.00 | 0.00 | 88 | 1007.5 |
| 20260509220051 | 50 | 176 | 4.0 | 9.0 | 0.00 | 0.00 | 0.00 | 87 | 1007.4 |
| 20260509215544 | 50 | 175 | 5.0 | 9.0 | 0.00 | 0.00 | 0.00 | 87 | 1007.4 |
| 20260509215046 | 50 | 175 | 3.0 | 9.0 | 0.00 | 0.00 | 0.00 | 87 | 1007.5 |
| 20260509214550 | 50 | 176 | 5.0 | 12.0 | 0.00 | 0.00 | 0.00 | 87 | 1007.5 |
| 20260509214044 | 50 | 176 | 6.0 | 12.0 | 0.00 | 0.00 | 0.00 | 86 | 1007.5 |
| 20260509213545 | 50 | 176 | 7.0 | 11.0 | 0.00 | 0.00 | 0.00 | 85 | 1007.6 |
| 20260509213050 | 51 | 187 | 6.0 | 11.0 | 0.00 | 0.00 | 0.00 | 85 | 1007.7 |
| 20260509212544 | 51 | 183 | 5.0 | 11.0 | 0.00 | 0.00 | 0.00 | 85 | 1007.8 |
| 20260509212047 | 51 | 190 | 6.0 | 11.0 | 0.00 | 0.00 | 0.00 | 84 | 1007.6 |
| 20260509211558 | 51 | 186 | 5.0 | 10.0 | 0.00 | 0.00 | 0.00 | 85 | 1007.7 |
| 20260509211043 | 50 | 182 | 4.0 | 9.0 | 0.00 | 0.00 | 0.00 | 85 | 1007.7 |
| 20260509210544 | 51 | 182 | 3.0 | 8.0 | 0.00 | 0.00 | 0.00 | 85 | 1007.7 |
| 20260509210104 | 50 | 182 | 4.0 | 8.0 | 0.00 | 0.00 | 0.00 | 84 | 1007.7 |
| 20260509205549 | 50 | 183 | 4.0 | 8.0 | 0.00 | 0.00 | 0.00 | 85 | 1007.8 |
| 20260509205045 | 50 | 183 | 3.0 | 7.0 | 0.00 | 0.00 | 0.00 | 85 | 1007.8 |
| 20260509204550 | 50 | 182 | 2.0 | 6.0 | 0.00 | 0.00 | 0.00 | 86 | 1007.8 |
| 20260509204044 | 50 | 182 | 3.0 | 7.0 | 0.00 | 0.00 | 0.00 | 86 | 1007.9 |
| 20260509203545 | 50 | 182 | 2.0 | 7.0 | 0.00 | 0.00 | 0.00 | 86 | 1007.9 |
| 20260509203053 | 50 | 182 | 3.0 | 5.0 | 0.00 | 0.00 | 0.00 | 86 | 1008.0 |
| 20260509202541 | 50 | 182 | 2.0 | 8.0 | 0.00 | 0.00 | 0.00 | 86 | 1008.1 |
| 20260509202047 | 50 | 182 | 3.0 | 8.0 | 0.00 | 0.00 | 0.00 | 86 | 1008.1 |
| 20260509201559 | 50 | 182 | 4.0 | 8.0 | 0.00 | 0.00 | 0.00 | 86 | 1008.0 |
| 20260509201045 | 50 | 179 | 3.0 | 10.0 | 0.00 | 0.00 | 0.00 | 86 | 1008.1 |
| 20260509200545 | 50 | 180 | 4.0 | 11.0 | 0.00 | 0.00 | 0.00 | 86 | 1008.2 |
| 20260509200052 | 50 | 178 | 4.0 | 11.0 | 0.00 | 0.00 | 0.00 | 86 | 1008.2 |
| 20260509195548 | 50 | 174 | 2.0 | 7.0 | 0.00 | 0.00 | 0.00 | 87 | 1008.2 |
| 20260509195044 | 50 | 174 | 3.0 | 8.0 | 0.00 | 0.00 | 0.00 | 87 | 1008.2 |
| 20260509194551 | 50 | 174 | 2.0 | 9.0 | 0.00 | 0.00 | 0.00 | 88 | 1008.2 |
| 20260509194047 | 50 | 174 | 3.0 | 9.0 | 0.00 | 0.00 | 0.00 | 88 | 1008.3 |
| 20260509193544 | 49 | 173 | 4.0 | 9.0 | 0.00 | 0.00 | 0.00 | 88 | 1008.3 |
| 20260509193055 | 49 | 173 | 4.0 | 11.0 | 0.00 | 0.00 | 0.00 | 88 | 1008.3 |
| 20260509192544 | 49 | 171 | 5.0 | 11.0 | 0.00 | 0.00 | 0.00 | 88 | 1008.3 |
| 20260509192044 | 49 | 175 | 4.0 | 10.0 | 0.00 | 0.00 | 0.00 | 87 | 1008.3 |
| 20260509191555 | 49 | 176 | 5.0 | 12.0 | 0.00 | 0.00 | 0.00 | 86 | 1008.5 |
| 20260509191042 | 50 | 175 | 5.0 | 14.0 | 0.00 | 0.00 | 0.00 | 84 | 1008.5 |
| 20260509190541 | 50 | 167 | 6.0 | 15.0 | 0.00 | 0.00 | 0.00 | 83 | 1008.4 |
| 20260509190108 | 50 | 176 | 7.0 | 15.0 | 0.00 | 0.00 | 0.00 | 81 | 1008.6 |
| 20260509185543 | 50 | 178 | 6.0 | 11.0 | 0.00 | 0.00 | 0.00 | 80 | 1008.7 |
| 20260509185042 | 51 | 174 | 5.0 | 13.0 | 0.00 | 0.00 | 0.00 | 80 | 1008.6 |
| 20260509184553 | 50 | 182 | 5.0 | 13.0 | 0.00 | 0.00 | 0.00 | 79 | 1008.6 |
| 20260509184043 | 50 | 185 | 7.0 | 13.0 | 0.00 | 0.00 | 0.00 | 78 | 1008.7 |
| 20260509183545 | 51 | 186 | 4.0 | 9.0 | 0.00 | 0.00 | 0.00 | 77 | 1008.8 |
| 20260509183047 | 51 | 182 | 4.0 | 9.0 | 0.00 | 0.00 | 0.00 | 76 | 1008.8 |
| 20260509182542 | 51 | 181 | 4.0 | 8.0 | 0.00 | 0.00 | 0.00 | 75 | 1008.8 |
| 20260509182044 | 51 | 180 | 4.0 | 8.0 | 0.00 | 0.00 | 0.00 | 75 | 1008.9 |
| 20260509181551 | 51 | 180 | 4.0 | 8.0 | 0.00 | 0.00 | 0.00 | 75 | 1008.8 |
| 20260509181042 | 51 | 185 | 3.0 | 6.0 | 0.00 | 0.00 | 0.00 | 74 | 1008.8 |
| 20260509180542 | 51 | 179 | 2.0 | 6.0 | 0.00 | 0.00 | 0.00 | 75 | 1008.9 |
| 20260509180059 | 50 | 178 | 2.0 | 6.0 | 0.00 | 0.00 | 0.00 | 75 | 1009.1 |
| 20260509175541 | 50 | 178 | 3.0 | 7.0 | 0.00 | 0.00 | 0.00 | 74 | 1009.0 |
| 20260509175041 | 50 | 178 | 3.0 | 8.0 | 0.00 | 0.00 | 0.00 | 73 | 1009.2 |
| 20260509174555 | 50 | 175 | 2.0 | 10.0 | 0.00 | 0.00 | 0.00 | 73 | 1009.0 |
| 20260509174042 | 50 | 176 | 2.0 | 10.0 | 0.00 | 0.00 | 0.00 | 73 | 1009.1 |
| 20260509173541 | 49 | 175 | 4.0 | 7.0 | 0.00 | 0.00 | 0.00 | 72 | 1009.3 |
| 20260509173057 | 49 | 179 | 3.0 | 8.0 | 0.00 | 0.00 | 0.00 | 72 | 1009.2 |
| 20260509172545 | 49 | 179 | 3.0 | 8.0 | 0.00 | 0.00 | 0.00 | 72 | 1009.3 |
| 20260509172045 | 49 | 178 | 3.0 | 9.0 | 0.00 | 0.00 | 0.00 | 71 | 1009.4 |
| 20260509171550 | 50 | 176 | 5.0 | 10.0 | 0.00 | 0.00 | 0.00 | 70 | 1009.4 |
| 20260509171041 | 50 | 178 | 5.0 | 12.0 | 0.00 | 0.00 | 0.00 | 69 | 1009.5 |
| 20260509170543 | 50 | 176 | 6.0 | 12.0 | 0.00 | 0.00 | 0.00 | 68 | 1009.4 |
| 20260509170059 | 50 | 165 | 6.0 | 12.0 | 0.00 | 0.00 | 0.00 | 65 | 1009.5 |
| 20260509165545 | 51 | 197 | 5.0 | 15.0 | 0.00 | 0.00 | 0.00 | 63 | 1009.5 |
| 20260509165041 | 51 | 186 | 8.0 | 15.0 | 0.00 | 0.00 | 0.00 | 59 | 1009.4 |
| 20260509164553 | 52 | 192 | 4.0 | 15.0 | 0.00 | 0.00 | 0.00 | 58 | 1009.4 |
| 20260509164042 | 52 | 173 | 6.0 | 18.0 | 0.00 | 0.00 | 0.00 | 55 | 1009.5 |
| 20260509163542 | 52 | 184 | 8.0 | 19.0 | 0.00 | 0.00 | 0.00 | 51 | 1009.5 |
| 20260509163103 | 52 | 178 | 7.0 | 19.0 | 0.00 | 0.00 | 0.00 | 50 | 1009.5 |
| 20260509162541 | 53 | 190 | 5.0 | 11.0 | 0.00 | 0.00 | 0.00 | 50 | 1009.6 |
| 20260509162041 | 53 | 183 | 4.0 | 14.0 | 0.00 | 0.00 | 0.00 | 49 | 1009.5 |
| 20260509161554 | 53 | 180 | 6.0 | 15.0 | 0.00 | 0.00 | 0.00 | 50 | 1009.6 |
| 20260509161042 | 54 | 190 | 7.0 | 15.0 | 0.00 | 0.00 | 0.00 | 50 | 1009.5 |
| 20260509160543 | 54 | 180 | 6.0 | 15.0 | 0.00 | 0.00 | 0.00 | 46 | 1009.6 |
| 20260509160049 | 55 | 190 | 7.0 | 15.0 | 0.00 | 0.00 | 0.00 | 45 | 1009.6 |
| 20260509155541 | 55 | 208 | 7.0 | 16.0 | 0.00 | 0.00 | 0.00 | 44 | 1009.5 |
| 20260509155045 | 55 | 212 | 7.0 | 17.0 | 0.00 | 0.00 | 0.00 | 44 | 1009.6 |
| 20260509154550 | 55 | 186 | 7.0 | 17.0 | 0.00 | 0.00 | 0.00 | 46 | 1009.6 |
| 20260509154042 | 55 | 181 | 3.0 | 12.0 | 0.00 | 0.00 | 0.00 | 48 | 1009.7 |
| 20260509153545 | 55 | 180 | 4.0 | 16.0 | 0.00 | 0.00 | 0.00 | 46 | 1009.7 |
| 20260509153050 | 55 | 175 | 7.0 | 16.0 | 0.00 | 0.00 | 0.00 | 41 | 1009.8 |
| 20260509152547 | 55 | 186 | 5.0 | 12.0 | 0.00 | 0.00 | 0.00 | 40 | 1009.8 |
| 20260509152048 | 55 | 204 | 4.0 | 12.0 | 0.00 | 0.00 | 0.00 | 45 | 1009.9 |
| 20260509151554 | 55 | 216 | 3.0 | 12.0 | 0.00 | 0.00 | 0.00 | 43 | 1009.9 |
| 20260509151048 | 55 | 213 | 5.0 | 12.0 | 0.00 | 0.00 | 0.00 | 44 | 1010.0 |
| 20260509150546 | 55 | 207 | 5.0 | 12.0 | 0.00 | 0.00 | 0.00 | 45 | 1009.9 |
| 20260509150107 | 55 | 211 | 5.0 | 10.0 | 0.00 | 0.00 | 0.00 | 44 | 1010.0 |
| 20260509145547 | 55 | 216 | 4.0 | 9.0 | 0.00 | 0.00 | 0.00 | 45 | 1010.0 |
| 20260509145045 | 55 | 214 | 5.0 | 12.0 | 0.00 | 0.00 | 0.00 | 46 | 1009.9 |
| 20260509144556 | 55 | 215 | 5.0 | 13.0 | 0.00 | 0.00 | 0.00 | 44 | 1010.0 |
| 20260509144048 | 55 | 161 | 6.0 | 13.0 | 0.00 | 0.00 | 0.00 | 41 | 1009.9 |
| 20260509143547 | 56 | 163 | 4.0 | 12.0 | 0.00 | 0.00 | 0.00 | 49 | 1009.9 |
| 20260509143102 | 55 | 159 | 7.0 | 12.0 | 0.00 | 0.00 | 0.00 | 41 | 1010.0 |
| 20260509142546 | 55 | 204 | 3.0 | 12.0 | 0.00 | 0.00 | 0.00 | 42 | 1009.9 |
| 20260509142048 | 55 | 182 | 6.0 | 14.0 | 0.00 | 0.00 | 0.00 | 40 | 1009.9 |
| 20260509141546 | 55 | 173 | 5.0 | 14.0 | 0.00 | 0.00 | 0.00 | 42 | 1010.0 |
| 20260509141046 | 55 | 176 | 4.0 | 13.0 | 0.00 | 0.00 | 0.00 | 42 | 1010.2 |
| 20260509140547 | 54 | 167 | 6.0 | 13.0 | 0.00 | 0.00 | 0.00 | 42 | 1010.1 |
| 20260509135548 | 54 | 161 | 5.0 | 12.0 | 0.00 | 0.00 | 0.00 | 41 | 1010.0 |
| 20260509135051 | 53 | 180 | 5.0 | 12.0 | 0.00 | 0.00 | 0.00 | 44 | 1010.1 |
| 20260509134553 | 53 | 169 | 5.0 | 12.0 | 0.00 | 0.00 | 0.00 | 42 | 1010.1 |
| 20260509134047 | 53 | 179 | 6.0 | 12.0 | 0.00 | 0.00 | 0.00 | 41 | 1010.1 |
| 20260509133543 | 53 | 173 | 3.0 | 14.0 | 0.00 | 0.00 | 0.00 | 45 | 1010.2 |
| 20260509133058 | 52 | 168 | 7.0 | 14.0 | 0.00 | 0.00 | 0.00 | 43 | 1010.3 |
| 20260509132547 | 52 | 181 | 5.0 | 9.0 | 0.00 | 0.00 | 0.00 | 46 | 1010.3 |
| 20260509132047 | 52 | 183 | 4.0 | 8.0 | 0.00 | 0.00 | 0.00 | 48 | 1010.3 |
| 20260509131549 | 52 | 184 | 2.0 | 9.0 | 0.00 | 0.00 | 0.00 | 50 | 1010.2 |
| 20260509131047 | 52 | 182 | 3.0 | 10.0 | 0.00 | 0.00 | 0.00 | 49 | 1010.4 |
| 20260509130544 | 51 | 183 | 4.0 | 12.0 | 0.00 | 0.00 | 0.00 | 49 | 1010.3 |
| 20260509130056 | 51 | 182 | 5.0 | 13.0 | 0.00 | 0.00 | 0.00 | 49 | 1010.5 |
| 20260509125546 | 50 | 179 | 5.0 | 13.0 | 0.00 | 0.00 | 0.00 | 49 | 1010.6 |
| 20260509125047 | 50 | 175 | 7.0 | 12.0 | 0.00 | 0.00 | 0.00 | 50 | 1010.5 |
| 20260509124556 | 50 | 186 | 5.0 | 12.0 | 0.00 | 0.00 | 0.00 | 49 | 1010.5 |
| 20260509124044 | 49 | 165 | 5.0 | 9.0 | 0.00 | 0.00 | 0.00 | 50 | 1010.7 |
| 20260509123548 | 49 | 185 | 4.0 | 9.0 | 0.00 | 0.00 | 0.00 | 54 | 1010.7 |
| 20260509123058 | 49 | 167 | 3.0 | 11.0 | 0.00 | 0.00 | 0.00 | 55 | 1010.7 |
| 20260509122547 | 48 | 165 | 5.0 | 11.0 | 0.00 | 0.00 | 0.00 | 55 | 1010.7 |
| 20260509122046 | 48 | 141 | 4.0 | 9.0 | 0.00 | 0.00 | 0.00 | 55 | 1010.8 |
| 20260509121558 | 47 | 136 | 3.0 | 8.0 | 0.00 | 0.00 | 0.00 | 58 | 1010.8 |
| 20260509121043 | 46 | 134 | 5.0 | 8.0 | 0.00 | 0.00 | 0.00 | 58 | 1010.8 |
| 20260509120544 | 45 | 121 | 2.0 | 6.0 | 0.00 | 0.00 | 0.00 | 63 | 1010.9 |
| 20260509120049 | 45 | 121 | 2.0 | 6.0 | 0.00 | 0.00 | 0.00 | 65 | 1010.9 |
| 20260509115549 | 44 | 121 | 2.0 | 6.0 | 0.00 | 0.00 | 0.00 | 65 | 1010.9 |
| 20260509115046 | 44 | 121 | 3.0 | 6.0 | 0.00 | 0.00 | 0.00 | 66 | 1010.9 |
| 20260509114600 | 43 | 121 | 2.0 | 5.0 | 0.00 | 0.00 | 0.00 | 66 | 1010.9 |
| 20260509114047 | 43 | 121 | 2.0 | 6.0 | 0.00 | 0.00 | 0.00 | 68 | 1011.0 |
| 20260509113550 | 42 | 121 | 2.0 | 6.0 | 0.00 | 0.00 | 0.00 | 69 | 1011.0 |
| 20260509113057 | 42 | 121 | 2.0 | 4.0 | 0.00 | 0.00 | 0.00 | 70 | 1011.0 |
| 20260509112546 | 41 | 0 | 1.0 | 4.0 | 0.00 | 0.00 | 0.00 | 70 | 1010.9 |
| 20260509112046 | 41 | 121 | 2.0 | 6.0 | 0.00 | 0.00 | 0.00 | 70 | 1010.9 |
| 20260509111551 | 40 | 121 | 1.0 | 7.0 | 0.00 | 0.00 | 0.00 | 71 | 1011.0 |
| 20260509111049 | 40 | 121 | 3.0 | 7.0 | 0.00 | 0.00 | 0.00 | 70 | 1011.0 |
| 20260509110546 | 40 | 121 | 2.0 | 7.0 | 0.00 | 0.00 | 0.00 | 71 | 1011.0 |
| 20260509110049 | 39 | 120 | 2.0 | 6.0 | 0.00 | 0.00 | 0.00 | 71 | 1011.0 |
| 20260509105545 | 39 | 120 | 1.0 | 6.0 | 0.00 | 0.00 | 0.00 | 73 | 1010.9 |
| 20260509105046 | 38 | 120 | 2.0 | 6.0 | 0.00 | 0.00 | 0.00 | 73 | 1011.0 |
| 20260509104551 | 38 | 120 | 2.0 | 6.0 | 0.00 | 0.00 | 0.00 | 74 | 1011.0 |
| 20260509104045 | 38 | 120 | 2.0 | 6.0 | 0.00 | 0.00 | 0.00 | 74 | 1010.8 |
| 20260509103542 | 37 | 120 | 1.0 | 6.0 | 0.00 | 0.00 | 0.00 | 75 | 1011.0 |
| 20260509103054 | 37 | 120 | 1.0 | 6.0 | 0.00 | 0.00 | 0.00 | 76 | 1010.9 |
| 20260509102547 | 37 | 120 | 1.0 | 6.0 | 0.00 | 0.00 | 0.00 | 76 | 1010.9 |
| 20260509102047 | 37 | 120 | 2.0 | 4.0 | 0.00 | 0.00 | 0.00 | 77 | 1010.9 |
| 20260509101550 | 37 | 120 | 1.0 | 4.0 | 0.00 | 0.00 | 0.00 | 76 | 1010.8 |
| 20260509101042 | 37 | 120 | 1.0 | 4.0 | 0.00 | 0.00 | 0.00 | 76 | 1010.9 |
| 20260509100548 | 37 | 120 | 1.0 | 6.0 | 0.00 | 0.00 | 0.00 | 75 | 1010.9 |
| 20260509100053 | 37 | 120 | 1.0 | 6.0 | 0.00 | 0.00 | 0.00 | 75 | 1010.9 |
| 20260509095547 | 37 | 120 | 2.0 | 6.0 | 0.00 | 0.00 | 0.00 | 75 | 1010.8 |
| 20260509095042 | 37 | 119 | 3.0 | 6.0 | 0.00 | 0.00 | 0.00 | 74 | 1010.8 |
| 20260509094552 | 37 | 119 | 3.0 | 6.0 | 0.00 | 0.00 | 0.00 | 73 | 1010.7 |
| 20260509094043 | 37 | 119 | 2.0 | 4.0 | 0.00 | 0.00 | 0.00 | 73 | 1010.6 |
| 20260509093545 | 37 | 119 | 2.0 | 4.0 | 0.00 | 0.00 | 0.00 | 73 | 1010.6 |
| 20260509093052 | 37 | 119 | 1.0 | 4.0 | 0.00 | 0.00 | 0.00 | 74 | 1010.6 |
| 20260509092545 | 38 | 119 | 1.0 | 3.0 | 0.00 | 0.00 | 0.00 | 73 | 1010.3 |
| 20260509092042 | 38 | 119 | 1.0 | 6.0 | 0.00 | 0.00 | 0.00 | 73 | 1010.3 |
| 20260509091555 | 38 | 119 | 1.0 | 6.0 | 0.00 | 0.00 | 0.00 | 73 | 1010.3 |
| 20260509091042 | 38 | 119 | 2.0 | 4.0 | 0.00 | 0.00 | 0.00 | 73 | 1010.4 |
| 20260509090547 | 38 | 119 | 2.0 | 4.0 | 0.00 | 0.00 | 0.00 | 73 | 1010.4 |
| 20260509090100 | 38 | 119 | 2.0 | 3.0 | 0.00 | 0.00 | 0.00 | 73 | 1010.5 |
| 20260509085550 | 38 | 119 | 2.0 | 4.0 | 0.00 | 0.00 | 0.00 | 73 | 1010.4 |